Location: Rancho Del Sol Observatory
(38.7214°N, 120.6350°W)
Time: 00:04:25
(UTC-08:00)

Explorer 7 - Visible Passes

Search period start: 25 January 2020 00:00
Search period end: 04 February 2020 00:00
Orbit: 485 x 679 km, 50.3° (Epoch: 24 January)

Date Brightness Start Highest point End Pass type
(mag) Time Alt. Az. Time Alt. Az. Time Alt. Az.
25 Jan 7.3 05:20:43 45° SSW 05:20:43 45° SSW 05:24:14 10° SSE visible
26 Jan 8.2 05:25:56 26° SSW 05:25:56 26° SSW 05:28:37 10° SSE visible
27 Jan 8.9 05:31:14 14° SSW 05:31:14 14° SSW 05:32:27 10° S visible
29 Jan 9.4 19:36:04 10° SSW 19:36:26 12° SSW 19:36:26 12° SSW visible
30 Jan 8.9 19:40:30 10° SW 19:41:50 20° SSW 19:41:50 20° SSW visible
31 Jan 8.9 18:07:43 10° SSE 18:09:12 12° SE 18:10:39 10° ESE visible
31 Jan 8.6 19:45:15 10° SW 19:47:10 27° SW 19:47:10 27° SW visible
01 Feb 8.3 18:10:52 10° S 18:13:56 21° SE 18:16:04 14° E visible
01 Feb 8.6 19:50:17 10° WSW 19:52:25 29° W 19:52:25 29° W visible
02 Feb 7.5 18:14:58 10° SSW 18:18:43 35° SE 18:21:15 17° ENE visible
02 Feb 8.8 19:55:31 10° W 19:57:36 25° WNW 19:57:36 25° WNW visible
03 Feb 6.8 18:19:32 10° SW 18:23:34 62° SE 18:26:22 18° ENE visible
03 Feb 9.1 20:00:55 10° W 20:02:42 20° WNW 20:02:42 20° WNW visible
